Opa Locka, FL

4:31 AM EST on November 18, 2019 (GMT -0500)
Opa Locka

Weather History for KOPF - October, 2019

Change the Weather History Date:

Sunday, October 13, 2019

  Actual Average Record
Temperature  
Mean Temperature 82 °F -  
Max Temperature 88 °F 86 °F 91 °F (1986)
Min Temperature 77 °F 70 °F 57 °F (1988)
Cooling Degree Days 17    
Growing Degree Days 32 (Base 50)    
Moisture  
Dew Point 72 °F    
Average Humidity 75    
Maximum Humidity 90    
Minimum Humidity 59    
Precipitation  
Precipitation 0.07 in - - ()
Sea Level Pressure  
Sea Level Pressure 30.01 in    
Wind  
Wind Speed 9 mph ()    
Max Wind Speed 14 mph    
Max Gust Speed -    
Visibility 10.0 miles    
Events      
Averages and records for this station are not official NWS values.
T = Trace of Precipitation, MM = Missing Value Source: Averaged Metar Reports

Daily Weather History Graph

Daily Weather History Graph

Search for Another Location

Airport or City:

Astronomy

Oct. 13, 2019 Rise Set
Actual Time 7:18 AM EDT 6:55 PM EDT
Civil Twilight 6:55 AM EDT 7:18 PM EDT
Nautical Twilight 6:28 AM EDT 7:45 PM EDT
Astronomical Twilight 6:02 AM EDT 8:12 PM EDT
Moon 7:11 PM EDT (10/13) 7:00 AM EDT (10/13)
Length of Visible Light 12h 22m
Length of Day
11h 36m
Full, 100% of the Moon is Illuminated
Oct 13
Full
Oct 13
Full
Oct 21
Last Quarter
Oct 27
New
Nov 4
First Quarter

Hourly Weather History & Observations

Time (EDT) Temp. Heat Index Dew Point Humidity Pressure Visibility Wind Dir Wind Speed Gust Speed Precip Events Conditions
12:53 AM 80.1 °F 83.2 °F 70.0 °F 71% 30.01 in 10.0 mi East 13.8 mph - N/A   Mostly Cloudy
1:53 AM 80.1 °F 83.2 °F 70.0 °F 71% 30.00 in 10.0 mi East 13.8 mph - N/A   Mostly Cloudy
2:53 AM 80.1 °F 83.2 °F 70.0 °F 71% 29.98 in 10.0 mi East 11.5 mph - N/A   Overcast
3:53 AM 79.0 °F - 71.1 °F 77% 29.97 in 10.0 mi East 8.1 mph - N/A   Partly Cloudy
5:53 AM 77.0 °F - 73.0 °F 88% 29.98 in 10.0 mi NE 5.8 mph - 0.06 in   Mostly Cloudy
6:12 AM 77.0 °F - 73.0 °F 88% 29.98 in 10.0 mi NE 6.9 mph - N/A   Mostly Cloudy
6:34 AM 77.0 °F - 73.9 °F 90% 29.98 in 10.0 mi ENE 4.6 mph - N/A   Overcast
6:53 AM 77.0 °F - 73.9 °F 90% 29.99 in 10.0 mi East 4.6 mph - N/A   Overcast
7:53 AM 78.1 °F - 73.0 °F 84% 29.99 in 10.0 mi East 8.1 mph - N/A   Partly Cloudy
8:53 AM 82.0 °F 87.4 °F 73.0 °F 74% 30.00 in 10.0 mi East 8.1 mph - N/A   Clear
9:53 AM 82.9 °F 88.0 °F 72.0 °F 69% 30.02 in 10.0 mi SE 12.7 mph - N/A   Scattered Clouds
10:53 AM 84.0 °F 90.2 °F 73.0 °F 69% 30.03 in 10.0 mi ESE 12.7 mph - N/A   Mostly Cloudy
11:53 AM 84.0 °F 89.6 °F 72.0 °F 67% 30.04 in 10.0 mi East 12.7 mph - 0.00 in   Overcast
12:53 PM 84.9 °F 90.7 °F 72.0 °F 65% 30.03 in 10.0 mi SE 12.7 mph - N/A   Overcast
1:53 PM 87.1 °F 92.8 °F 71.1 °F 59% 30.01 in 10.0 mi ESE 11.5 mph - N/A   Clear
2:53 PM 87.1 °F 92.8 °F 71.1 °F 59% 29.99 in 10.0 mi SE 13.8 mph - N/A   Partly Cloudy
3:53 PM 87.1 °F 93.6 °F 72.0 °F 61% 29.98 in 10.0 mi ESE 13.8 mph - N/A   Clear
4:53 PM 84.9 °F 91.4 °F 73.0 °F 67% 29.99 in 10.0 mi East 10.4 mph - N/A   Mostly Cloudy
5:53 PM 82.0 °F 87.4 °F 73.0 °F 74% 30.00 in 10.0 mi East 12.7 mph - N/A   Overcast
6:53 PM 79.0 °F - 75.0 °F 88% 30.00 in 10.0 mi East 9.2 mph - 0.01 in   Mostly Cloudy
7:53 PM 79.0 °F - 73.0 °F 82% 30.01 in 10.0 mi East 9.2 mph - N/A   Clear
8:53 PM 79.0 °F - 73.0 °F 82% 30.03 in 10.0 mi East 6.9 mph - N/A   Clear
9:53 PM 79.0 °F - 72.0 °F 79% 30.04 in 10.0 mi East 6.9 mph - N/A   Clear
10:53 PM 79.0 °F - 72.0 °F 79% 30.04 in 10.0 mi ESE 6.9 mph - N/A   Clear
11:53 PM 78.1 °F - 72.0 °F 81% 30.04 in 10.0 mi East 5.8 mph - N/A   Clear